CAPE
3 5 0 19 17 3 29 118 307 500 437 706 783 784 595 502 631 984 1159 1298 784 707 722 707 680 640 585 569 584 606 513 650 852 647 837 1015 1105 1020 1003 995 958 434 572
6 16 130 29 3 4 8 70 279 167 295 374 552 373 392 382 365 510 695 960 917 714 720 720 659 611 593 516 382 545 545 392 787 620 608 780 832 757 669 671 979 814 735
59 203 35 5 7 8 7 7 134 234 242 228 267 521 735 706 603 537 577 630 686 673 621 549 484 385 285 207 185 355 529 509 520 755 910 889 399 473 468 500 483 578 649
102 69 0 0 0 1 2 6 3 74 68 356 529 765 688 610 591 428 557 577 638 679 679 693 530 375 272 231 243 204 460 558 717 987 822 184 380 660 560 519 547 464 362
56 8 0 0 0 0 0 2 4 3 379 461 532 593 369 193 143 105 74 144 185 294 357 511 622 599 562 464 451 464 247 378 773 902 558 139 472 641 745 733 699 537 617
27 2 0 0 0 0 0 0 1 5 72 5 1 3 6 2 0 0 0 0 0 0 13 165 344 329 256 187 246 230 241 358 319 772 441 410 694 788 903 492 717 754 748
29 5 0 0 0 0 0 0 0 3 0 0 0 0 0 0 0 0 0 0 0 0 0 0 0 0 0 0 0 35 135 150 191 262 307 402 1090 876 803 590 507 473 494
11 18 0 0 0 0 0 0 0 0 0 0 0 0 0 0 0 0 0 0 0 0 0 0 0 0 0 0 0 0 0 119 158 538 266 585 954 955 901 730 533 455 367
20 13 1 0 0 0 0 0 0 0 0 0 0 0 0 0 0 0 0 0 0 0 0 0 0 0 0 0 0 0 0 2 365 380 152 1148 664 896 931 804 504 417 276
0 1 1 0 0 0 0 0 0 0 0 0 0 0 0 0 0 0 0 0 0 0 0 0 0 0 0 0 0 0 0 0 334 627 610 501 657 673 968 1032 748 424 315
0 0 0 0 0 0 0 0 0 0 0 0 0 0 0 0 0 0 0 0 0 0 0 0 0 0 0 0 0 0 0 8 41 289 136 101 707 786 977 1230 1010 732 549
0 0 0 0 0 0 0 0 0 0 0 0 0 0 0 0 0 0 0 0 0 0 0 0 0 0 0 0 0 0 0 0 15 236 0 0 193 1082 1116 1249 1276 1113 761
0 0 0 0 0 0 0 0 0 0 0 0 0 0 0 0 0 0 0 0 0 0 0 0 0 0 0 0 0 0 0 0 69 126 0 0 0 43 605 1097 1110 1172 1273
0 0 0 0 0 0 0 0 0 0 0 0 0 0 0 0 0 0 0 0 0 0 0 0 0 0 0 0 0 0 0 0 0 5 0 0 0 0 78 403 508 855 879
0 0 0 0 0 0 0 0 0 0 0 0 0 0 0 0 0 0 0 0 0 0 0 0 0 0 0 0 0 0 0 0 0 0 0 0 0 0 13 103 191 244 297
0 0 0 0 0 0 0 0 0 0 0 0 0 0 0 0 0 0 0 0 0 0 0 0 0 0 0 0 0 0 0 0 0 0 0 0 0 0 0 0 2 9 11
0 0 0 0 0 0 0 0 0 0 0 0 0 0 0 0 0 0 0 0 0 0 0 0 0 0 0 0 0 0 0 0 0 0 0 0 0 0 0 0 0 0 0
0 0 0 0 0 0 0 0 0 0 0 0 0 0 0 0 0 0 0 0 0 0 0 0 0 0 0 0 0 0 0 0 0 0 0 0 0 0 4 0 0 0 0
0 0 0 0 0 0 0 0 0 0 0 0 0 0 0 0 0 0 0 0 0 0 0 0 0 0 0 0 0 0 0 0 0 2 4 5 4 1 0 2 0 0 0
0 0 0 0 0 0 0 0 0 0 0 0 0 0 0 0 0 0 0 0 0 0 0 0 0 0 0 0 0 0 0 0 0 2 10 2 16 10 10 1 0 4 0
0 0 0 0 0 0 0 0 0 0 0 0 0 0 0 0 0 0 0 0 0 0 0 0 0 0 0 0 0 0 0 0 8 1 6 4 12 8 5 10 8 1 9
0 0 0 0 0 0 0 0 0 0 0 0 0 0 0 0 0 0 0 0 0 0 0 0 0 0 0 0 0 0 0 0 0 0 3 17 29 0 3 6 13 12 5
0 0 0 0 0 0 0 0 0 0 0 0 0 0 0 0 0 0 0 0 0 0 0 0 0 0 0 0 0 0 0 0 0 0 0 2 8 6 0 6 7 0 16
0 0 0 0 0 0 0 0 0 0 0 1 1 0 0 0 0 0 0 0 0 0 0 0 0 0 0 0 0 0 0 0 0 0 0 0 0 0 2 0 1 0 2
0 0 0 0 0 0 0 0 0 0 0 0 0 0 0 0 0 0 0 0 0 0 0 0 0 0 0 0 0 0 0 0 0 0 0 0 0 0 0 0 0 0 8
0 0 0 0 0 0 0 0 0 0 0 7 0 0 0 0 0 0 0 0 0 0 0 0 0 0 0 0 0 0 0 0 0 0 0 0 0 0 0 0 0 0 0
CIN
-0 -0 -0 -13 -25 -4 -41 -9 -0 -0 -0 -0 -0 -0 -0 -0 -0 -0 -0 -0 -0 -0 -0 -1 -4 -4 -10 -11 -19 -32 -50 -31 -14 -20 -5 -0 -0 -0 -0 -2 -7 -0 -0
-0 -0 -0 -16 -0 -0 -0 -22 -1 -2 -0 -0 -0 -0 -0 -0 -1 -0 -0 -0 -0 -0 -0 -0 -3 -13 -21 -33 -53 -39 -39 -76 -41 -60 -54 -15 -15 -5 -11 -19 -20 -1 -1
-0 -1 -38 -0 -0 -0 -0 -0 -14 -1 -0 -0 -0 -0 -0 -0 -0 -0 -0 -0 -0 -0 -0 -2 -9 -27 -42 -63 -75 -62 -61 -54 -54 -65 -62 -4 -41 -47 -26 -17 -18 -4 -3
-25 -36 -0 -0 -0 -0 -0 -0 -0 -24 -22 -0 -0 -0 -0 -0 -0 -0 -0 -0 -0 -0 -0 -0 -8 -35 -66 -82 -84 -96 -72 -70 -75 -91 -28 -0 -3 -57 -54 -36 -6 -5 -14
-44 -0 -0 -0 -0 -0 -0 -0 -0 -0 -1 -0 -0 -0 -0 -9 -24 -42 -86 -63 -39 -15 -13 -11 -10 -18 -36 -63 -79 -86 -112 -113 -105 -114 -26 -2 -0 -45 -15 -22 -13 -15 -3
-0 -0 -0 -0 -0 -0 -0 -0 -0 -0 -34 -0 -0 -0 -0 -0 -0 -0 -0 -0 -0 -0 -33 -59 -35 -51 -78 -107 -108 -132 -141 -141 -182 -21 -0 -23 -1 -63 -14 -17 -6 -7 -6
-0 -0 -0 -0 -0 -0 -0 -0 -0 -0 -0 -0 -0 -0 -0 -0 -0 -0 -0 -0 -0 -0 -0 -0 -0 -0 -0 -0 -0 -136 -178 -193 -85 -14 -0 -0 -25 -65 -30 -36 -21 -17 -25
-0 -0 -0 -0 -0 -0 -0 -0 -0 -0 -0 -0 -0 -0 -0 -0 -0 -0 -0 -0 -0 -0 -0 -0 -0 -0 -0 -0 -0 -0 -0 -201 -49 -0 -0 -124 -83 -80 -41 -31 -32 -30 -30
-0 -0 -0 -0 -0 -0 -0 -0 -0 -0 -0 -0 -0 -0 -0 -0 -0 -0 -0 -0 -0 -0 -0 -0 -0 -0 -0 -0 -0 -0 -0 -40 -60 -2 -0 -57 -127 -73 -44 -34 -50 -41 -43
-0 -0 -0 -0 -0 -0 -0 -0 -0 -0 -0 -0 -0 -0 -0 -0 -0 -0 -0 -0 -0 -0 -0 -0 -0 -0 -0 -0 -0 -0 -0 -0 -37 -2 -201 -141 -115 -92 -30 -9 -19 -43 -43
-0 -0 -0 -0 -0 -0 -0 -0 -0 -0 -0 -0 -0 -0 -0 -0 -0 -0 -0 -0 -0 -0 -0 -0 -0 -0 -0 -0 -0 -0 -0 -1 -4 -13 -141 -179 -96 -68 -22 -0 -0 -13 -25
-0 -0 -0 -0 -0 -0 -0 -0 -0 -0 -0 -0 -0 -0 -0 -0 -0 -0 -0 -0 -0 -0 -0 -0 -0 -0 -0 -0 -0 -0 -0 -0 -8 -20 -0 -0 -108 -9 -3 -0 -0 -0 -5
-0 -0 -0 -0 -0 -0 -0 -0 -0 -0 -0 -0 -0 -0 -0 -0 -0 -0 -0 -0 -0 -0 -0 -0 -0 -0 -0 -0 -0 -0 -0 -0 -30 -9 -0 -0 -0 -71 -11 -0 -0 -0 -0
-0 -0 -0 -0 -0 -0 -0 -0 -0 -0 -0 -0 -0 -0 -0 -0 -0 -0 -0 -0 -0 -0 -0 -0 -0 -0 -0 -0 -0 -0 -0 -0 -0 -4 -0 -0 -0 -0 -34 -0 -5 -0 -0
-0 -0 -0 -0 -0 -0 -0 -0 -0 -0 -0 -0 -0 -0 -0 -0 -0 -0 -0 -0 -0 -0 -0 -0 -0 -0 -0 -0 -0 -0 -0 -0 -0 -0 -0 -0 -0 -0 -64 -6 -2 -2 -7
-0 -0 -0 -0 -0 -0 -0 -0 -0 -0 -0 -0 -0 -0 -0 -0 -0 -0 -0 -0 -0 -0 -0 -0 -0 -0 -0 -0 -0 -0 -0 -0 -0 -0 -0 -0 -0 -0 -0 -0 -0 -25 -19
-0 -0 -0 -0 -0 -0 -0 -0 -0 -0 -0 -0 -0 -0 -0 -0 -0 -0 -0 -0 -0 -0 -0 -0 -0 -0 -0 -0 -0 -0 -0 -0 -0 -0 -0 -0 -0 -0 -0 -0 -0 -0 -0
-0 -0 -0 -0 -0 -0 -0 -0 -0 -0 -0 -0 -0 -0 -0 -0 -0 -0 -0 -0 -0 -0 -0 -0 -0 -0 -0 -0 -0 -0 -0 -0 -0 -0 -0 -0 -0 -0 -47 -0 -0 -0 -0
-0 -0 -0 -0 -0 -0 -0 -0 -0 -0 -0 -0 -0 -0 -0 -0 -0 -0 -0 -0 -0 -0 -0 -0 -0 -0 -0 -0 -0 -0 -0 -0 -0 -0 -0 -0 -1 -0 -0 -35 -0 -0 -0
-0 -0 -0 -0 -0 -0 -0 -0 -0 -0 -0 -0 -0 -0 -0 -0 -0 -0 -0 -0 -0 -0 -0 -0 -0 -0 -0 -0 -0 -0 -0 -0 -0 -0 -0 -0 -0 -0 -0 -0 -0 -2 -0
-0 -0 -0 -0 -0 -0 -0 -0 -0 -0 -0 -0 -0 -0 -0 -0 -0 -0 -0 -0 -0 -0 -0 -0 -0 -0 -0 -0 -0 -0 -0 -0 -5 -3 -0 -0 -0 -0 -0 -0 -0 -0 -3
-0 -0 -0 -0 -0 -0 -0 -0 -0 -0 -0 -0 -0 -0 -0 -0 -0 -0 -0 -0 -0 -0 -0 -0 -0 -0 -0 -0 -0 -0 -0 -0 -0 -0 -0 -0 -0 -0 -0 -0 -0 -0 -0
-0 -0 -0 -0 -0 -0 -0 -0 -0 -0 -0 -0 -0 -0 -0 -0 -0 -0 -0 -0 -0 -0 -0 -0 -0 -0 -0 -0 -0 -0 -0 -0 -0 -0 -0 -0 -6 -0 -0 -0 -0 -0 -0
-0 -0 -0 -0 -0 -0 -0 -0 -0 -0 -0 -0 -0 -0 -0 -0 -0 -0 -0 -0 -0 -0 -0 -0 -0 -0 -0 -0 -0 -0 -0 -0 -0 -0 -0 -0 -0 -0 -0 -0 -0 -0 -0
-0 -0 -0 -0 -0 -0 -0 -0 -0 -0 -0 -0 -0 -0 -0 -0 -0 -0 -0 -0 -0 -0 -0 -0 -0 -0 -0 -0 -0 -0 -0 -0 -0 -0 -0 -0 -0 -0 -0 -0 -0 -0 -1
-0 -0 -0 -0 -0 -0 -0 -0 -0 -0 -0 -0 -0 -0 -0 -0 -0 -0 -0 -0 -0 -0 -0 -0 -0 -0 -0 -0 -0 -0 -0 -0 -0 -0 -0 -0 -0 -0 -0 -0 -0 -0 -0
Wind_Speed
9 15 10 10 11 12 12 11 10 11 12 12 12 13 13 13 13 14 14 10 11 11 11 11 11 11 12 13 12 10 7 7 7 6 6 9 10 9 9 11 12 13 9
7 14 13 12 12 12 13 12 12 11 12 11 12 12 12 12 12 13 14 14 13 11 10 10 10 10 11 11 11 11 8 2 1 3 5 9 11 8 9 11 15 10 6
10 15 16 14 13 13 13 13 13 12 11 11 10 11 12 13 12 13 13 13 12 12 11 10 11 12 13 13 13 13 9 3 6 9 10 11 12 7 7 8 8 6 6
13 12 14 14 13 13 13 13 12 13 11 10 8 11 14 14 15 14 15 14 13 13 12 12 12 12 12 12 12 12 11 4 9 13 11 4 12 9 7 4 3 3 3
11 12 13 13 13 14 14 14 13 12 14 13 14 15 16 14 15 15 15 15 14 14 12 12 12 13 12 12 12 11 10 8 12 14 10 8 5 9 5 5 8 5 5
9 11 13 13 14 14 14 14 14 13 14 16 16 15 15 15 16 15 15 14 14 13 13 13 13 13 12 13 12 12 11 13 13 15 2 8 6 11 5 3 5 5 6
8 10 11 13 13 13 13 13 13 12 13 13 13 14 14 15 15 16 16 15 15 15 15 14 13 12 12 13 13 13 12 13 13 14 5 4 14 10 3 2 1 2 2
7 8 9 12 12 13 13 13 13 13 13 13 13 13 14 15 14 16 16 16 16 15 15 15 15 13 12 12 12 11 12 12 13 13 7 10 12 11 4 2 1 1 1
6 7 5 7 10 14 13 12 12 12 13 12 11 9 9 11 13 13 16 15 15 14 14 14 14 14 12 10 10 12 12 12 11 11 5 8 9 7 3 4 3 3 3
7 7 6 6 7 7 9 8 9 9 8 9 8 5 3 7 13 12 11 13 11 12 11 12 12 11 11 10 8 9 12 15 13 12 9 9 12 3 4 4 5 4 5
6 5 6 7 6 5 6 5 7 6 5 7 6 3 1 8 8 11 7 6 7 5 4 5 7 10 14 13 9 8 11 7 10 6 8 17 16 8 7 6 7 7 7
6 5 7 6 5 4 5 4 5 6 8 8 8 9 7 6 6 5 5 5 4 10 7 3 7 10 9 9 5 5 7 8 9 11 10 20 21 14 6 7 6 8 8
7 6 8 7 5 5 4 3 4 5 5 6 9 8 8 7 7 7 6 7 8 10 9 10 11 10 12 10 9 8 9 9 8 6 11 19 17 16 16 13 8 8 9
9 7 7 8 6 5 4 5 5 5 5 6 8 8 6 6 8 8 7 9 8 8 10 10 8 9 10 11 12 11 10 10 8 1 10 15 14 15 15 14 12 12 9
9 8 8 8 6 5 5 6 6 6 6 7 8 9 7 8 7 8 8 9 9 10 10 10 10 9 9 9 9 10 11 10 10 7 6 11 11 14 15 16 16 15 13
10 8 8 8 7 7 7 7 6 6 7 7 7 8 9 8 7 8 9 9 9 9 10 9 9 9 9 9 8 7 7 8 8 8 7 5 10 11 14 15 15 16 16
9 10 9 8 8 8 8 6 5 5 5 6 7 8 8 9 7 7 8 8 8 8 10 9 10 10 9 9 11 7 7 6 7 8 7 8 3 9 11 12 13 14 16
11 11 10 8 9 7 7 5 5 5 4 4 5 6 7 8 8 7 7 8 8 8 9 10 10 10 10 9 10 9 8 7 4 6 6 6 6 8 5 10 8 10 14
12 11 10 9 9 8 7 5 5 4 4 4 3 5 5 7 8 7 8 8 9 9 9 10 11 11 10 10 11 11 9 9 9 7 7 8 4 7 7 4 6 7 13
12 11 10 9 10 8 6 5 5 4 3 3 4 5 4 5 7 7 7 8 9 8 9 10 11 11 10 10 12 12 10 7 6 8 7 7 8 9 8 8 7 4 9
13 12 12 11 11 9 7 6 6 5 4 4 5 4 5 6 7 8 7 8 9 8 9 10 9 12 10 10 10 11 10 9 4 6 7 7 8 8 11 7 6 7 2
14 13 13 12 12 10 7 6 4 4 3 4 4 5 6 6 7 7 7 7 8 7 8 9 10 9 9 9 9 11 9 9 11 12 8 6 3 7 10 12 9 8 7
14 15 14 13 13 11 9 5 4 4 4 5 5 5 5 5 6 6 7 6 7 7 7 9 9 11 9 9 10 8 7 9 12 12 12 10 11 7 8 9 10 12 10
15 14 14 13 13 12 11 9 9 7 6 4 4 5 5 4 5 5 5 6 6 6 7 8 8 8 9 9 9 8 8 11 10 9 10 9 11 11 10 8 9 11 14
16 14 13 14 13 12 11 11 9 9 4 4 4 5 3 3 3 3 4 5 6 6 7 8 8 9 7 8 8 9 9 8 10 10 12 10 10 9 10 10 10 10 11
14 14 14 14 14 13 12 12 9 7 5 5 5 4 3 2 3 2 4 4 5 6 7 7 8 9 9 8 8 9 8 9 9 10 11 12 12 11 10 10 10 8 9
Wind_Direction
39 75 53 47 43 38 35 28 28 28 39 43 48 46 45 43 39 37 41 56 61 52 48 45 37 29 24 20 17 13 20 40 41 44 65 79 69 58 39 20 338 79 59
51 85 64 48 44 39 35 28 29 31 36 46 47 48 50 46 43 40 38 35 46 47 41 32 27 24 20 18 16 10 352 351 114 205 167 125 84 48 27 32 28 73 75
65 48 71 44 39 39 33 30 26 30 37 54 55 52 49 49 49 48 43 37 34 33 28 24 18 14 10 7 6 8 10 302 267 249 212 214 93 86 50 34 43 50 51
80 68 59 53 43 41 36 33 30 31 44 52 57 61 56 49 48 47 42 35 28 25 23 19 13 7 6 2 360 3 7 331 254 261 260 21 110 122 120 102 87 71 52
81 71 70 55 47 42 37 32 32 34 32 56 51 53 50 47 48 46 43 37 31 26 25 22 15 12 7 6 360 353 346 327 289 280 240 20 22 116 126 132 170 148 31
87 76 68 52 45 42 40 39 35 38 46 53 50 50 48 45 43 41 39 38 35 33 30 25 21 16 12 8 4 357 340 316 312 287 321 128 55 109 115 36 49 88 98
82 85 76 62 52 47 44 45 47 52 55 61 61 59 53 48 45 41 37 33 29 26 25 23 20 16 10 6 1 354 346 326 300 300 343 214 111 120 123 116 30 3 63
108 102 105 92 70 58 51 50 51 55 59 57 56 57 54 50 44 44 39 34 29 25 21 16 10 8 1 360 356 347 336 323 301 289 328 81 113 120 150 186 245 256 300
117 107 94 73 108 92 61 55 57 58 61 59 54 55 67 76 58 44 48 37 31 26 22 14 3 355 346 340 340 335 323 304 290 277 274 60 81 104 170 199 207 232 254
106 125 95 65 65 50 85 68 75 73 76 74 60 1 231 145 98 55 36 37 32 26 20 11 357 334 315 300 301 317 307 294 264 281 56 28 20 13 250 225 220 227 238
123 112 69 74 63 101 104 108 143 141 162 161 137 15 20 47 36 71 69 41 35 348 18 351 326 306 295 259 259 286 293 307 336 23 38 11 14 350 274 250 228 227 231
121 112 92 55 77 99 92 107 101 78 59 38 46 26 63 57 52 57 97 179 70 348 232 223 306 307 349 351 349 273 344 340 288 42 34 16 16 358 310 280 261 230 237
118 91 113 94 66 41 52 48 62 61 58 76 60 43 54 42 22 34 35 37 28 36 21 13 27 22 22 9 6 5 344 316 51 44 39 31 16 6 12 15 2 350 250
133 126 98 88 95 28 60 53 74 69 77 73 44 50 53 43 37 33 24 28 30 30 22 19 22 18 17 27 13 9 9 1 4 61 79 59 32 21 10 17 11 6 353
132 133 112 100 89 95 70 82 73 83 68 75 69 45 45 45 44 35 32 28 29 20 24 18 16 12 9 19 27 8 5 10 1 355 78 88 62 45 32 17 19 19 4
137 133 124 109 99 95 92 95 106 99 102 76 65 50 59 46 27 38 30 25 23 22 13 20 5 6 5 352 8 9 358 360 13 1 343 98 102 77 60 34 21 20 10
151 147 142 127 120 111 122 117 94 90 94 92 87 63 53 35 44 26 35 18 12 19 10 9 4 1 4 356 351 335 332 352 353 349 349 345 47 97 87 61 34 31 29
152 162 162 144 136 144 118 136 116 118 105 95 90 77 52 38 20 30 28 26 354 13 16 3 2 1 354 354 348 334 330 312 339 310 355 345 5 341 114 84 70 48 42
152 168 171 154 148 146 148 123 107 144 124 103 88 78 45 46 22 357 36 25 358 16 19 5 358 359 347 352 343 330 339 312 299 313 327 325 358 350 338 91 130 85 62
160 173 174 170 158 166 158 171 166 153 140 120 71 60 19 44 27 3 38 25 357 20 9 3 355 350 337 356 335 338 322 306 326 311 321 314 325 352 335 333 330 98 104
161 180 184 182 171 180 183 189 172 172 135 113 83 71 57 36 35 23 18 19 3 13 10 359 356 347 348 354 338 335 328 333 224 335 296 327 332 340 315 331 312 341 74
173 193 186 188 181 194 194 204 193 158 160 98 89 80 65 54 35 47 17 19 12 355 14 2 5 347 346 342 355 318 339 322 16 336 297 305 3 325 343 327 332 329 320
190 195 193 191 182 195 205 186 199 162 157 177 153 133 77 65 54 40 29 21 7 357 5 356 3 350 342 341 360 338 332 334 326 317 320 349 346 334 339 334 332 329 312
198 192 198 191 185 192 201 193 203 200 199 166 130 92 108 66 53 42 33 19 9 350 4 352 360 344 345 341 341 347 323 314 315 310 315 318 309 340 327 338 333 328 307
199 190 199 192 191 192 195 234 194 235 208 141 128 152 96 104 52 45 31 16 5 354 359 343 346 342 338 335 334 331 324 317 313 311 312 314 315 320 324 325 328 296 321
191 191 192 197 198 197 200 206 217 213 241 169 181 198 197 195 183 66 4 3 351 352 352 342 339 336 328 327 330 321 322 321 318 316 310 313 311 311 323 313 306 322 306